Theta_e
302 298 296 296 298 300 300 298 300 297 296 294 295 294 294 294 295 297 295 292 291 291 291 293 294 294 294 296 298 299 300 298 297 297 298 298 299 298 298 297 295 295 295 298 297 296 295 294 293 293 293 293 293 293 293 293 294 294 293 293 293 293 293 292 292 292 292 292 292 292 291 292 292 291 291 291 291 291 291 290 290 290 290 290 289 289
299 297 297 300 301 300 299 298 295 292 293 294 294 294 293 295 292 295 293 289 292 290 292 294 293 293 294 296 297 299 298 297 298 298 298 298 299 299 299 298 296 295 297 297 295 295 294 293 292 292 292 292 291 291 291 292 293 293 293 293 293 293 292 292 293 293 292 293 292 292 291 291 290 290 290 290 290 290 290 290 290 290 290 289 289 288
296 295 299 301 299 294 292 292 293 294 293 292 294 294 291 293 295 295 293 291 291 290 291 293 292 292 294 296 298 298 298 299 300 300 300 300 300 301 300 299 297 295 295 294 294 293 292 292 291 290 291 291 292 292 291 293 293 293 293 293 293 293 292 293 292 293 292 292 291 291 291 290 290 290 289 289 290 289 289 290 290 289 289 289 288 288
294 297 300 294 295 293 289 289 290 291 292 293 291 290 290 295 291 292 291 289 291 291 292 292 290 291 294 296 297 298 298 298 300 300 301 301 300 300 300 299 296 295 294 293 292 291 291 291 290 289 289 290 291 291 290 291 292 292 292 292 293 292 292 292 292 291 292 292 291 291 290 289 288 288 289 289 290 289 289 289 289 289 289 288 287 288
295 297 287 293 294 296 293 288 290 291 292 293 294 294 293 294 294 291 292 290 292 292 290 290 291 293 296 296 297 296 293 291 294 295 297 298 301 301 301 299 298 296 295 293 292 291 290 290 289 289 289 290 290 290 290 291 291 290 292 293 293 292 292 292 291 291 291 290 290 290 289 288 288 288 288 288 288 289 288 287 289 288 288 287 287 287
296 294 290 291 292 292 293 288 291 294 292 293 293 293 295 295 293 293 292 290 291 291 290 290 287 289 296 295 295 297 294 294 294 294 296 298 298 298 296 296 296 297 297 295 293 292 291 290 290 289 289 289 289 290 291 291 291 291 292 293 292 292 292 291 291 291 290 289 289 288 287 287 287 287 288 287 288 288 288 287 288 287 287 287 287 287
297 288 293 295 293 293 293 294 294 294 293 291 293 295 294 293 293 291 289 290 288 287 291 292 286 284 293 292 294 296 296 297 297 294 297 300 301 297 296 296 296 295 295 296 295 293 291 290 290 289 288 288 288 290 291 291 291 291 293 292 292 292 291 291 291 291 290 289 289 288 288 288 288 287 288 288 287 287 287 286 286 287 287 287 286 286
292 288 290 293 293 293 292 291 295 292 292 290 290 289 290 290 290 290 290 290 289 291 290 290 291 285 286 291 295 295 295 296 297 299 300 301 301 300 298 297 297 296 296 295 295 294 292 291 290 289 289 288 289 290 290 290 290 290 291 291 291 291 291 291 291 290 289 289 289 288 287 287 287 287 287 287 286 286 286 286 286 286 286 286 286 285
292 290 291 291 292 291 292 295 294 295 294 292 286 289 290 291 291 290 291 290 289 286 284 288 291 286 285 291 295 295 293 294 295 297 299 301 302 301 300 297 298 298 297 296 295 294 293 291 290 290 289 289 289 289 289 290 290 290 291 290 291 290 290 290 290 289 289 288 289 288 287 286 287 287 286 286 286 285 285 285 285 285 285 285 285 285
292 294 295 296 292 292 294 286 290 295 293 288 287 288 288 288 288 289 289 288 288 284 282 287 290 284 285 290 289 289 292 293 296 298 299 301 303 302 300 298 298 297 297 296 296 295 294 293 291 291 290 288 288 289 290 290 290 290 290 289 289 289 289 289 288 288 288 288 287 287 287 286 286 286 285 286 285 285 285 284 284 285 285 285 285 284
291 290 292 292 294 296 289 287 286 289 287 288 290 292 290 289 288 286 288 288 286 281 284 289 290 288 283 290 292 288 291 294 297 299 300 302 303 300 300 299 298 296 296 294 295 295 294 293 292 290 289 288 288 289 289 290 289 289 289 289 288 288 289 288 288 287 287 287 287 286 286 286 285 286 285 284 284 284 284 283 283 284 284 284 283 284
290 290 291 293 291 288 291 288 288 285 288 291 290 290 291 290 287 286 286 286 281 282 288 290 291 290 281 288 292 295 297 297 298 297 298 300 301 303 301 299 298 297 295 294 292 292 293 291 290 289 288 288 287 288 288 289 289 289 289 289 288 287 287 287 287 286 286 286 286 286 286 285 285 285 283 283 283 283 283 283 283 283 283 283 283 283
289 290 293 292 291 293 291 292 288 289 287 290 290 290 286 285 285 282 282 279 280 281 286 283 288 286 285 290 295 295 296 297 297 299 299 301 303 304 305 300 298 295 293 292 291 291 290 290 288 287 288 287 287 286 287 288 288 288 288 288 287 286 286 286 286 286 285 285 285 285 285 285 284 284 283 283 283 283 282 282 282 282 281 282 282 282
293 288 290 294 291 292 296 291 289 287 287 289 288 288 285 282 281 278 282 283 283 288 287 286 288 283 290 292 296 296 298 299 299 299 301 302 303 304 304 299 294 292 292 291 291 290 290 289 288 288 287 286 286 286 287 288 287 287 287 288 287 286 286 286 285 285 285 285 285 285 284 284 284 283 283 282 282 282 282 282 281 281 281 281 281 281
286 288 289 290 291 295 294 295 296 293 288 288 293 291 288 287 282 279 281 280 282 284 284 285 283 283 285 290 297 298 298 300 300 301 301 301 301 301 294 293 291 290 290 290 290 290 289 289 288 287 287 287 286 286 287 287 287 287 287 287 287 285 285 285 285 285 284 284 284 284 284 283 282 282 282 282 282 281 281 281 280 280 280 280 280 281
289 289 294 294 290 293 292 296 294 291 289 290 291 292 288 286 292 283 286 284 283 283 283 281 284 290 290 295 297 295 298 298 299 300 300 298 297 296 291 291 291 290 290 289 289 289 289 289 288 288 287 287 286 286 287 286 286 286 286 287 287 285 285 285 284 284 284 284 284 283 282 282 281 281 281 280 280 281 281 280 280 279 280 280 280 280
286 287 289 290 290 291 291 290 292 294 286 287 288 285 288 292 291 287 285 283 282 282 281 290 286 290 294 295 294 296 293 295 296 296 297 297 298 295 293 293 292 291 290 289 289 288 288 288 288 288 287 287 287 286 286 286 286 286 286 286 286 285 284 284 284 284 284 283 283 282 281 281 280 280 280 280 279 279 279 279 279 279 279 279 279 279
290 290 286 291 287 289 284 287 290 290 292 287 284 288 289 293 292 288 281 285 282 280 282 287 285 287 288 285 294 294 292 294 294 294 295 295 296 294 295 295 294 293 291 289 288 288 288 288 287 287 287 287 286 286 286 286 287 286 286 286 285 284 283 284 283 283 283 282 281 281 280 280 279 279 279 279 278 278 278 278 278 278 278 278 279 279
294 286 289 286 287 287 285 289 289 289 289 289 287 293 288 283 282 286 284 277 278 278 280 285 287 287 289 289 290 290 291 292 294 295 294 294 294 294 295 295 295 293 291 289 288 287 287 287 287 287 287 287 287 287 287 286 286 286 286 286 286 284 284 283 283 283 282 281 280 280 279 279 279 278 278 278 278 277 277 277 278 278 278 278 278 278
295 288 287 284 286 287 287 289 284 287 288 288 288 287 288 288 289 283 284 285 285 280 281 281 285 283 292 292 295 293 293 295 294 294 293 294 295 294 294 293 293 292 290 289 288 287 287 287 287 287 286 286 286 286 286 286 286 285 285 285 285 284 284 283 282 281 280 280 279 279 279 278 278 278 277 277 277 277 277 277 277 277 277 277 277 277
290 292 284 285 284 287 284 287 287 289 284 284 286 286 286 288 288 287 285 284 283 281 281 280 280 287 293 297 295 295 295 296 296 295 297 296 296 296 295 293 293 292 291 290 288 287 287 287 287 287 287 287 287 286 286 285 285 285 285 284 284 283 282 281 281 280 280 279 279 278 278 277 277 277 277 276 276 276 276 276 277 277 277 277 276 276
289 287 285 287 283 284 288 292 292 293 291 288 287 285 286 284 282 279 279 287 284 283 280 280 279 288 294 293 296 296 297 298 298 298 298 298 296 297 296 295 294 293 292 291 289 288 288 287 287 287 286 286 286 285 285 285 285 284 284 284 284 283 282 281 280 280 279 279 278 278 277 277 277 276 276 276 276 275 276 276 276 276 276 275 275 275
294 288 288 285 288 290 290 288 286 290 294 292 290 288 290 289 288 284 278 283 281 284 287 286 282 285 296 295 297 298 298 297 299 298 298 298 297 296 295 295 294 293 293 291 290 289 288 287 287 286 286 285 285 285 285 284 284 284 284 283 283 282 281 280 280 279 279 278 278 277 277 277 276 276 276 275 276 275 276 276 276 276 275 275 275 275
292 289 284 286 291 289 282 286 285 284 291 288 289 291 290 286 288 287 285 286 284 285 282 282 279 284 295 297 298 297 298 298 298 299 298 298 297 296 295 294 292 291 291 291 290 288 287 287 286 285 285 285 285 284 284 284 284 284 283 283 282 281 280 280 279 279 278 278 277 277 276 276 276 275 275 275 276 275 276 275 275 275 275 274 275 274
287 286 286 283 283 286 288 286 285 286 287 288 288 288 289 291 290 290 287 286 282 285 285 283 277 284 295 295 296 295 294 294 295 294 296 298 297 297 295 294 291 290 290 289 288 287 286 285 285 285 285 285 284 284 284 283 283 283 283 282 281 281 280 279 279 278 278 277 276 276 276 276 276 275 275 275 276 275 275 275 275 275 274 274 273 273
290 287 286 280 278 276 276 278 281 281 282 286 287 287 289 289 288 286 282 284 280 284 286 283 282 289 294 296 294 293 292 294 295 294 292 292 294 295 295 293 291 290 289 289 288 286 285 285 285 285 285 284 284 284 283 283 283 283 282 282 281 280 279 278 278 278 277 277 276 276 275 276 275 275 275 275 275 274 274 274 274 274 273 273 272 271
286 288 289 287 286 283 285 287 289 288 286 283 285 286 287 288 289 289 287 284 282 285 284 286 286 288 290 293 294 295 295 294 295 294 292 292 291 290 291 292 292 290 289 288 287 287 286 285 284 285 285 284 284 284 283 283 283 282 281 281 280 279 278 278 277 277 276 276 276 275 275 275 275 275 275 275 274 274 274 273 273 272 271 271 270 269
287 285 288 289 288 290 290 290 292 291 286 286 286 285 288 287 286 285 284 282 289 283 280 288 289 286 288 292 293 294 295 296 297 297 296 296 294 292 291 291 291 291 291 289 288 287 286 285 285 284 284 284 283 283 283 283 283 282 281 280 279 278 278 277 276 276 276 275 275 275 275 275 275 275 274 274 273 273 272 272 271 270 269 269 268 268
287 285 288 288 287 291 292 291 291 291 290 289 288 288 286 287 286 283 284 288 289 284 282 288 290 287 289 292 294 295 296 296 296 297 297 297 297 295 294 293 293 292 291 290 288 287 286 285 285 284 284 284 283 283 282 282 282 281 280 279 278 277 277 276 276 275 275 275 275 275 275 275 274 274 273 272 271 270 270 269 269 268 267 267 267 267
288 285 288 288 287 289 289 290 291 290 289 288 288 288 289 288 287 287 286 288 288 287 289 289 290 289 292 293 295 296 297 297 297 298 297 297 296 296 296 296 296 296 294 291 289 287 287 286 286 285 284 283 283 282 282 282 281 280 279 278 277 277 276 276 275 274 274 274 275 275 274 274 273 272 271 270 269 269 268 267 267 266 266 265 266 266
287 283 289 287 285 285 288 289 290 289 287 285 287 288 287 287 288 288 287 288 288 288 289 289 288 287 293 295 295 297 297 297 296 295 295 296 296 296 296 296 296 297 296 293 291 288 287 286 286 285 284 283 283 282 282 281 281 280 279 277 276 276 275 275 274 274 274 274 274 274 273 272 271 271 269 269 268 267 266 266 265 265 265 265 265 265
288 285 288 285 282 282 286 287 287 288 287 285 284 285 287 287 286 287 286 289 287 286 287 287 285 286 292 295 295 295 295 295 294 294 295 296 296 296 296 296 296 296 297 296 292 291 288 286 285 284 284 283 283 282 282 281 280 279 278 277 276 275 275 274 274 273 274 274 273 272 272 271 270 269 268 267 266 265 265 264 264 264 264 264 264 265
286 285 284 284 280 280 285 286 286 286 284 281 282 285 288 288 289 290 291 291 290 290 287 284 285 291 293 295 294 294 294 294 294 295 295 296 297 297 296 296 296 297 297 297 297 292 289 287 286 285 284 284 283 282 282 281 279 278 277 276 276 274 273 273 273 273 273 273 272 271 271 270 268 267 266 266 265 264 263 263 263 263 263 264 265 265
287 285 284 286 279 280 284 285 285 281 275 276 288 291 291 288 288 287 288 289 291 291 289 292 292 294 295 295 294 294 294 295 295 297 298 297 296 296 297 297 297 297 298 298 298 293 290 288 287 286 285 284 283 283 282 281 279 279 277 275 274 273 273 272 272 272 272 271 271 270 270 268 267 267 266 265 264 264 263 263 263 264 264 264 265 265
286 285 284 286 281 280 283 283 279 274 276 287 292 293 293 292 291 290 290 291 292 293 293 292 293 293 295 296 296 296 296 297 297 297 297 297 297 296 296 296 297 298 298 298 296 292 290 288 286 285 284 283 282 281 280 279 278 276 275 274 272 272 272 272 272 271 271 270 270 269 268 267 266 266 265 264 263 263 262 262 263 263 264 265 265 265
285 285 285 283 284 283 280 280 273 274 285 289 292 292 294 293 292 290 288 290 291 292 292 291 293 294 294 295 295 296 295 295 296 296 297 297 297 296 296 297 298 298 298 297 295 293 288 286 285 284 283 282 281 279 279 278 276 274 273 273 272 271 271 271 271 271 271 269 269 268 268 266 266 265 264 264 263 262 262 263 263 263 264 264 264 265
288 287 286 281 285 278 279 279 278 286 283 285 288 289 290 288 289 288 283 287 292 293 293 292 292 293 293 294 294 295 295 294 292 294 297 296 294 296 297 297 298 297 297 296 294 292 289 287 285 284 282 281 279 277 277 276 274 273 271 271 271 271 271 271 270 270 270 269 268 267 267 266 265 264 263 263 262 262 262 262 262 263 264 263 264 264
290 285 286 283 280 285 279 277 278 277 275 281 289 293 295 295 294 294 289 286 294 294 295 293 292 293 293 293 293 294 294 290 288 291 295 295 296 296 296 296 295 294 293 291 288 287 287 286 284 283 281 278 277 276 275 274 273 271 271 270 270 270 270 270 270 270 269 268 268 267 266 266 265 263 263 262 261 261 262 262 263 263 263 263 263 263
290 290 287 284 281 283 280 277 276 275 278 287 288 293 295 296 295 290 287 282 291 293 294 294 292 293 293 293 293 293 290 286 288 293 295 294 294 294 295 294 293 291 288 288 287 285 284 283 282 280 279 277 275 275 274 273 272 271 270 269 269 269 269 269 270 269 268 268 267 266 265 264 263 263 262 261 261 261 260 261 262 263 263 263 263 263
286 286 285 282 280 281 280 278 276 281 280 288 291 292 294 295 296 290 278 278 291 292 294 293 292 293 293 293 293 291 288 286 290 293 294 292 293 293 293 292 288 285 284 284 284 284 282 281 279 277 277 276 275 274 273 273 272 271 270 269 270 269 269 269 270 269 268 267 265 264 263 262 261 261 260 260 260 261 261 262 262 262 262 262 263 263
283 284 284 279 281 281 281 279 281 282 288 292 292 295 294 294 291 281 276 285 293 294 295 295 294 294 294 293 293 289 291 293 293 296 287 284 285 285 283 284 286 285 283 282 282 281 279 279 279 277 276 276 274 272 272 272 271 270 270 269 269 269 269 269 268 267 266 265 263 262 262 261 260 260 260 260 260 261 261 262 262 261 261 261 262 262
282 283 283 284 281 279 280 279 278 283 289 293 294 294 292 290 280 279 289 295 295 294 295 296 295 295 294 293 293 293 294 295 294 295 288 284 287 285 283 282 281 281 281 282 280 279 278 277 277 276 275 274 272 272 272 271 271 270 269 269 269 270 269 267 266 265 264 263 262 261 260 260 260 259 259 259 260 260 261 262 261 261 261 262 262 261
283 283 278 281 283 283 281 279 278 274 287 295 293 291 291 286 286 294 295 295 295 295 295 295 295 294 294 293 293 294 294 294 294 294 292 289 286 283 281 280 280 280 278 278 278 278 277 276 275 275 274 272 271 271 272 272 270 269 269 269 269 268 266 265 264 263 262 261 260 259 259 259 259 259 259 259 260 259 260 261 260 260 260 260 260 261
290 284 282 284 286 280 279 277 277 286 290 295 293 287 289 292 295 296 295 294 296 296 295 295 295 295 295 294 294 294 294 294 295 294 292 289 286 284 282 282 281 280 278 278 278 277 276 275 274 272 270 270 270 270 272 271 269 268 268 268 266 265 264 263 262 262 260 259 259 259 258 258 259 259 260 259 260 260 260 260 260 260 261 261 261 262
290 288 289 285 288 286 283 286 291 293 294 295 295 295 295 296 297 296 296 296 295 296 296 296 295 296 295 294 294 294 293 293 293 294 291 290 287 283 281 281 280 279 277 276 276 276 275 274 272 270 269 269 269 270 271 271 269 268 268 266 264 263 262 262 261 260 259 259 258 258 258 258 259 259 259 259 259 260 260 259 260 261 261 261 261 262
294 295 294 291 289 293 294 294 296 295 295 294 297 297 296 296 297 296 295 295 296 297 297 296 296 296 295 294 292 292 292 293 293 293 292 291 289 284 282 280 278 277 276 276 275 275 274 273 271 269 267 267 268 269 270 270 270 268 266 264 263 263 262 260 259 259 258 258 258 258 258 258 258 258 258 259 260 259 261 260 260 261 261 262 262 262
289 291 291 289 291 288 284 294 293 294 295 295 296 297 297 296 296 296 295 295 296 297 296 296 296 296 295 293 291 292 293 293 292 293 292 291 288 284 281 280 278 276 275 274 275 273 272 270 268 267 266 266 267 268 269 269 270 267 264 263 263 262 260 259 259 258 258 258 257 257 258 259 259 259 258 258 260 260 260 261 261 261 261 262 262 262
286 294 289 288 288 285 286 292 294 296 297 297 297 295 294 295 296 296 296 296 296 297 296 297 296 294 294 292 292 292 293 293 292 291 291 289 287 285 281 279 277 275 275 275 274 272 271 269 268 267 266 265 266 267 267 266 265 264 263 262 262 260 260 259 259 258 258 257 258 257 258 259 258 259 260 259 259 260 261 261 260 261 261 262 262 262
289 289 283 286 285 288 290 292 293 294 294 295 296 297 296 296 296 296 296 296 295 295 295 295 295 295 295 294 295 293 291 291 292 291 291 290 287 285 281 278 276 274 274 273 272 270 269 269 268 267 266 266 265 265 265 263 262 262 262 261 260 259 259 259 259 258 257 258 258 257 257 258 257 258 259 258 258 259 260 260 260 261 261 263 264 264
287 284 288 287 283 284 284 287 292 286 286 292 295 297 296 298 297 295 296 294 295 294 294 294 294 295 294 294 294 293 291 291 291 291 289 289 289 286 281 278 276 274 273 273 271 270 270 269 268 267 266 265 264 264 263 261 261 261 261 260 259 260 259 258 257 257 258 258 258 257 257 257 257 257 257 258 258 259 259 260 262 262 262 263 266 268
284 285 288 285 284 284 290 293 293 292 292 293 294 296 296 296 295 293 294 294 295 295 295 295 293 293 293 294 294 292 291 291 292 292 290 289 288 286 282 278 275 273 272 271 269 269 269 268 267 266 265 264 263 262 261 260 260 260 259 259 260 259 258 258 258 258 258 257 257 257 257 258 258 257 258 258 258 258 259 260 261 264 266 267 267 267
Wind_Speed
1 5 7 10 12 10 9 13 13 3 2 1 1 3 10 10 12 13 4 5 4 5 14 17 17 19 20 20 21 21 16 11 16 19 19 16 11 11 14 11 11 13 16 10 11 13 13 14 12 11 11 11 12 13 13 14 13 14 12 11 12 10 9 8 8 7 6 6 4 3 3 3 3 2 1 2 1 1 1 1 3 4 4 4 5 5
2 8 12 19 14 2 7 7 4 2 2 6 6 6 10 7 13 5 3 7 3 3 7 10 15 17 20 20 22 23 17 24 23 20 19 19 14 15 14 12 11 13 7 8 9 11 13 12 13 11 10 13 16 14 14 15 15 14 14 13 11 9 9 9 8 7 6 5 4 4 4 3 2 1 1 1 2 1 1 3 4 5 5 5 5 4
6 10 17 2 5 7 6 3 5 8 5 4 7 4 5 11 8 10 6 5 3 5 11 10 15 18 19 20 23 24 20 16 19 16 21 18 18 15 10 9 9 10 11 10 12 12 13 15 15 13 12 13 16 15 15 15 15 14 13 13 12 10 10 8 7 6 5 4 4 3 3 2 1 1 0 1 1 2 3 4 5 5 5 5 4 5
5 11 14 7 7 8 4 2 4 1 2 5 4 5 11 3 3 8 4 1 5 4 10 10 17 17 18 20 24 22 11 14 14 17 17 15 18 19 13 8 9 12 12 13 14 15 15 15 15 13 14 14 14 13 14 15 16 11 12 13 12 11 10 8 8 6 5 5 5 4 2 2 1 1 0 2 4 4 5 6 5 5 4 5 5 5
13 1 0 6 4 8 5 5 7 6 7 7 9 10 11 10 8 8 4 4 5 8 5 11 14 14 11 10 7 4 2 2 8 10 13 15 14 13 1 4 10 14 13 13 14 14 15 16 18 17 15 13 14 15 15 15 14 9 14 13 13 11 10 9 8 8 7 6 5 4 3 1 2 2 3 4 5 5 5 5 5 4 4 6 6 5
16 3 4 6 3 3 4 5 9 8 7 6 9 14 15 6 12 7 4 7 6 6 3 6 14 11 6 4 7 3 3 4 4 6 10 12 11 8 11 12 10 12 11 14 16 17 17 17 15 14 14 16 15 16 15 14 12 12 12 12 12 9 9 9 10 9 7 6 5 5 4 4 4 5 5 5 5 4 4 3 3 5 5 6 6 6
6 5 3 6 7 6 8 7 5 10 7 4 7 11 13 12 7 5 5 2 7 7 2 5 5 17 8 6 7 4 3 6 3 9 11 11 7 8 10 10 11 12 11 11 12 13 15 16 15 16 17 18 17 15 13 12 13 14 11 11 11 10 9 9 10 10 7 7 6 6 5 4 4 4 4 3 2 3 3 3 5 5 5 5 6 6
5 3 4 3 5 7 5 9 8 13 4 8 3 2 3 4 7 6 5 7 10 3 2 4 8 17 12 11 4 5 10 10 12 15 15 13 13 10 10 10 12 11 12 12 14 15 15 16 18 20 20 17 16 13 13 13 12 14 12 12 11 9 9 8 9 10 8 7 7 6 6 5 5 6 5 4 3 4 4 5 6 6 5 5 5 6
3 6 7 7 7 6 11 6 9 13 9 1 1 2 4 5 4 5 5 6 6 6 10 8 10 10 12 7 12 10 14 12 15 16 15 14 11 10 10 11 13 12 12 13 12 15 16 17 18 16 16 15 13 12 14 13 12 11 11 12 11 11 10 10 11 10 9 7 7 7 7 7 6 6 5 4 4 4 5 6 6 6 6 6 6 6
3 4 7 9 7 9 4 3 2 10 11 2 5 6 6 4 4 3 4 5 5 2 10 8 11 9 19 10 6 0 6 10 11 14 16 15 11 6 8 10 11 9 9 10 12 11 13 14 14 14 12 14 13 12 11 11 10 11 10 12 13 13 10 10 11 10 10 9 8 8 8 8 7 6 5 5 5 5 5 6 7 6 6 5 5 5
3 2 4 2 9 3 6 5 3 2 5 7 4 3 2 2 2 2 1 3 5 11 11 12 17 14 17 6 10 10 9 12 11 10 9 9 6 7 8 9 9 10 10 9 10 10 10 10 11 12 14 14 12 11 13 12 13 12 12 13 15 14 10 12 12 12 11 10 9 9 9 10 9 8 6 6 6 6 6 6 6 5 5 5 6 5
3 3 2 5 4 5 5 7 5 3 2 6 3 2 0 3 2 3 1 3 6 11 5 15 15 19 13 2 6 10 6 9 13 11 11 12 12 8 8 8 9 9 8 8 9 9 10 10 11 12 14 14 14 13 15 13 13 12 13 13 15 14 13 12 11 12 11 10 10 10 10 10 10 9 7 7 7 6 6 6 6 5 5 6 6 6
6 10 2 3 3 6 5 4 3 2 3 2 4 2 3 5 1 4 4 5 9 10 2 4 5 5 21 19 4 4 5 9 8 9 10 11 9 8 8 8 7 7 7 9 9 10 11 12 13 15 15 15 17 17 17 15 13 12 13 16 16 15 14 13 12 13 12 11 11 10 10 10 8 9 8 7 6 5 5 5 5 5 6 6 6 6
4 4 4 6 2 6 9 9 5 4 9 9 9 8 5 6 4 6 9 2 6 3 4 4 2 12 14 11 18 20 19 11 11 11 10 11 9 9 9 6 5 6 8 9 9 10 11 12 13 14 15 15 15 18 18 17 15 13 13 16 16 15 14 12 13 13 13 12 11 11 10 9 8 8 7 6 6 6 5 4 5 6 6 6 7 7
7 7 8 12 7 11 15 16 6 4 12 12 6 8 9 4 3 6 6 8 7 8 3 5 2 7 1 3 7 19 18 17 13 11 12 8 7 4 4 3 4 6 7 7 9 11 12 12 14 14 15 16 17 19 18 16 16 14 15 16 17 15 15 14 14 12 13 11 11 10 9 8 7 6 6 6 5 5 5 5 6 6 6 7 7 7
12 12 2 6 5 12 13 7 8 9 3 5 1 3 3 11 6 9 2 4 4 9 10 7 9 4 5 3 0 1 1 10 10 12 14 10 10 6 3 6 7 7 7 8 8 9 10 11 12 11 11 12 11 15 15 16 16 16 17 17 17 16 15 14 13 12 12 11 10 10 10 9 7 5 5 5 5 5 5 6 7 7 8 7 7 7
2 8 6 3 0 6 2 2 3 3 8 7 6 9 6 5 6 7 2 2 2 2 17 4 11 12 7 12 8 7 8 10 9 13 11 11 13 10 9 8 9 8 8 8 8 7 9 9 11 11 12 12 13 14 17 18 18 19 17 18 18 16 14 14 14 12 12 11 10 10 9 8 8 8 7 6 6 6 6 7 7 7 8 7 7 7
8 4 4 4 6 1 2 4 3 5 2 9 7 5 3 2 4 3 6 0 4 8 15 2 16 18 10 12 7 7 10 9 11 14 12 13 14 8 12 13 10 9 8 7 7 6 8 10 11 11 11 14 15 15 14 15 14 14 14 17 17 16 16 14 13 12 11 11 10 10 9 9 8 7 7 6 6 6 6 7 7 7 7 7 6 6
4 8 6 3 4 5 1 3 3 2 6 2 1 2 5 5 5 2 0 6 7 9 8 12 20 17 17 14 5 8 13 14 14 13 11 11 11 11 13 15 11 5 4 7 9 9 9 11 12 14 14 13 13 13 13 13 12 12 13 14 15 16 15 14 11 10 9 9 7 7 9 9 8 7 6 5 6 6 7 8 7 7 7 6 7 6
0 7 3 1 2 4 2 5 8 7 3 2 1 3 4 3 5 7 8 1 4 10 6 16 20 21 4 7 8 10 14 12 14 10 11 14 13 11 11 11 8 6 8 8 8 9 10 11 12 13 14 15 15 14 13 13 12 15 15 15 14 13 13 12 12 11 11 9 8 8 7 8 7 6 6 6 6 6 7 7 7 7 7 7 6 6
4 3 9 5 4 3 6 9 11 14 12 6 6 7 4 3 3 4 3 5 7 7 10 12 14 20 2 6 8 9 12 12 10 10 11 10 10 10 11 10 7 9 9 9 9 9 10 11 11 12 12 11 11 11 12 13 16 15 13 15 15 16 14 13 12 11 10 9 9 9 9 8 7 8 6 7 7 7 7 6 6 6 6 6 6 5
3 4 13 5 3 9 10 11 13 7 12 14 15 13 15 10 7 6 11 3 3 7 7 9 16 17 7 4 6 6 6 5 8 8 8 10 11 11 9 10 11 10 11 10 9 8 8 9 10 10 10 10 11 12 15 14 14 15 16 15 15 14 13 13 12 11 11 9 9 10 9 8 7 7 6 7 7 7 6 6 6 5 5 6 6 6
8 4 6 11 11 9 6 1 2 3 5 4 7 9 12 11 9 9 12 8 1 9 14 10 8 19 2 6 4 4 6 7 7 8 7 8 10 10 10 11 7 7 8 8 8 8 8 8 9 11 13 14 15 14 15 14 16 16 17 15 14 14 14 13 12 11 10 10 9 9 8 8 7 7 7 7 6 6 6 5 6 5 5 6 5 6
5 2 5 11 9 3 4 5 2 2 3 3 10 5 8 14 15 13 11 3 6 5 8 7 9 15 5 6 6 5 5 6 6 10 9 8 10 9 10 9 10 9 9 7 6 6 7 7 9 10 12 13 14 15 17 15 15 14 14 14 14 15 15 14 12 11 10 10 9 9 9 8 7 8 7 7 6 6 6 5 5 5 5 5 5 6
3 4 7 6 5 7 9 3 3 1 3 9 9 12 13 8 12 6 4 1 6 15 21 6 12 14 9 5 11 4 2 5 6 4 4 8 9 10 9 8 7 8 8 8 9 9 8 9 11 13 13 14 13 13 14 15 15 15 15 14 14 13 14 12 12 11 11 10 11 10 9 9 8 7 7 7 5 6 5 5 5 4 5 5 6 6
8 5 10 10 15 13 12 16 12 8 13 5 6 5 12 17 14 6 10 9 11 17 16 10 17 21 13 6 8 5 1 6 5 1 3 6 7 7 6 7 7 8 10 11 9 8 12 12 10 10 13 12 13 13 14 14 15 15 14 14 13 14 13 12 11 11 11 10 10 9 9 9 8 8 7 7 6 5 5 4 4 4 4 5 6 6
4 6 13 16 17 17 20 19 4 8 7 9 9 8 13 15 18 16 10 13 18 9 12 17 22 18 16 23 25 21 6 9 8 6 8 10 9 9 7 7 8 9 8 9 10 9 7 8 14 15 13 13 13 13 13 15 15 15 14 15 13 13 13 12 12 11 11 10 10 9 10 9 8 7 7 6 5 4 4 4 3 4 5 5 6 6
1 8 15 21 23 20 22 21 23 7 8 9 10 11 13 15 17 17 16 23 10 6 16 14 25 20 17 22 26 27 21 18 19 15 17 12 11 10 10 10 13 10 9 9 9 11 14 14 13 13 15 14 14 14 13 14 15 16 16 16 14 14 12 10 12 12 11 10 9 9 9 8 8 7 6 5 4 4 3 3 4 4 4 4 6 6
4 11 11 15 20 20 18 26 25 24 19 12 12 12 14 16 19 23 27 22 14 12 19 23 20 17 17 23 29 26 18 16 19 20 17 17 10 5 9 11 12 12 13 13 12 12 12 13 14 15 15 15 15 17 17 15 14 13 12 12 13 13 13 12 12 12 11 10 9 9 9 8 7 6 6 5 4 4 4 4 4 4 4 5 5 5
1 10 9 12 17 16 20 22 24 23 19 19 17 16 16 18 23 22 22 17 20 26 24 22 21 23 21 26 26 20 15 15 17 16 20 21 19 15 13 14 17 16 15 14 14 14 15 15 13 14 14 15 18 18 17 16 16 16 16 15 14 13 12 12 12 12 11 10 9 8 8 8 6 6 5 5 5 4 4 4 4 4 4 5 5 5
4 11 10 13 14 16 20 23 24 23 21 21 19 16 17 24 23 17 19 25 25 18 23 22 21 22 22 26 20 16 19 22 20 22 25 26 25 21 18 19 21 22 16 13 12 14 14 14 13 13 16 18 19 20 18 17 17 16 15 14 14 13 12 11 11 10 10 9 9 8 8 7 7 6 6 5 5 4 4 4 4 4 4 5 5 5
7 13 11 11 13 14 17 23 26 23 21 16 11 17 26 27 21 21 24 21 17 20 22 17 17 18 22 22 19 21 25 23 23 24 24 22 21 14 13 17 20 21 19 11 14 14 12 13 15 17 18 18 18 19 17 17 16 16 16 15 14 12 12 10 10 10 9 9 9 8 8 7 7 7 6 6 5 5 4 4 4 4 4 4 5 5
5 7 9 9 14 15 21 18 17 14 11 11 15 26 30 25 22 25 26 22 22 22 18 15 20 17 19 18 20 23 22 18 19 21 24 25 20 14 17 20 19 19 18 19 18 12 14 15 17 18 17 15 16 18 19 18 16 18 16 15 13 12 12 11 10 9 9 9 9 9 8 7 7 7 6 6 5 4 4 4 4 4 4 5 4 4
8 9 10 6 11 11 16 16 12 11 15 18 23 26 20 25 31 31 25 29 27 15 17 15 17 19 22 21 26 21 19 21 22 22 24 21 17 16 20 19 20 21 22 20 16 12 14 11 11 12 15 16 17 16 16 17 18 15 13 12 12 12 11 12 10 9 9 9 8 8 8 7 7 7 6 6 5 5 4 4 4 4 4 3 4 4
11 11 13 9 10 12 13 7 9 17 17 21 15 10 23 30 30 30 32 25 19 18 19 22 25 27 26 22 25 22 21 22 18 23 28 24 16 15 19 21 21 21 21 20 12 10 11 10 8 9 10 12 13 14 14 13 12 12 11 12 12 10 12 10 11 9 9 9 8 8 8 8 7 6 6 5 5 5 4 4 3 4 4 3 3 4
14 15 11 9 10 8 6 8 11 17 5 1 8 16 20 19 21 24 25 24 19 17 21 24 27 25 25 31 28 23 21 16 17 23 27 20 13 14 18 19 21 19 18 13 11 11 10 12 13 14 13 10 11 11 13 14 12 12 11 10 11 11 10 11 10 10 9 9 9 9 8 8 7 6 6 5 5 5 4 4 3 3 3 3 3 3
21 15 11 12 11 13 11 15 22 3 4 6 7 13 16 18 22 23 20 15 15 14 21 25 24 23 31 29 27 22 18 11 13 22 26 9 12 14 18 19 18 15 12 9 7 9 9 11 10 9 9 12 12 12 13 12 12 12 12 11 10 11 11 11 10 10 10 9 9 8 8 8 7 7 6 6 5 4 4 3 3 3 2 2 3 3
20 20 14 17 11 14 16 13 10 10 16 14 18 20 18 18 18 13 12 12 8 19 27 23 25 26 26 26 23 21 11 8 16 19 22 8 16 14 13 10 9 9 7 4 1 2 4 6 7 9 12 12 12 11 12 13 14 13 13 12 12 12 12 11 11 10 10 9 9 8 8 7 7 6 6 5 5 4 3 3 2 3 2 2 2 4
23 22 19 18 13 11 14 12 14 14 16 10 23 23 25 22 12 6 4 11 8 26 28 26 26 23 25 24 23 17 8 12 17 19 15 10 9 9 10 11 9 6 5 6 7 7 7 9 11 11 11 14 14 13 13 14 15 13 12 12 12 12 13 11 11 11 11 10 9 8 7 6 6 6 6 5 4 4 3 3 3 2 1 1 2 4
24 15 13 16 14 13 14 14 15 7 12 12 15 18 25 20 5 4 14 14 19 35 28 27 25 25 25 24 20 14 12 16 17 19 12 8 8 10 10 10 9 7 6 5 6 8 9 11 13 13 14 15 16 14 16 15 14 17 14 12 12 12 12 12 11 10 9 9 9 8 7 6 6 5 5 5 4 3 3 2 2 1 0 1 2 3
15 12 16 20 16 22 23 16 14 10 3 8 17 21 9 13 12 14 22 13 23 25 21 22 23 23 21 19 15 14 17 19 18 19 4 6 4 5 4 2 5 6 8 9 8 10 11 11 14 16 16 12 12 12 13 12 14 13 11 12 12 12 11 11 10 10 10 9 8 8 7 6 5 5 4 4 3 3 2 2 1 1 1 1 2 3
12 11 13 17 17 15 17 16 19 16 13 13 15 16 11 11 12 23 19 23 21 18 16 15 17 18 17 17 15 16 17 19 16 15 11 12 12 9 8 7 7 4 3 5 8 10 10 10 10 10 10 11 14 13 15 18 21 12 9 10 11 10 10 11 11 10 9 9 8 7 6 6 5 4 4 3 3 3 3 2 1 0 1 1 2 4
11 11 11 15 12 14 11 14 11 14 7 23 24 12 13 17 21 16 20 18 19 18 17 17 16 16 15 13 15 17 17 17 15 15 16 14 12 12 11 11 11 11 10 11 10 8 11 12 13 13 13 11 12 12 13 18 19 18 14 9 10 10 10 10 10 10 10 9 9 7 7 6 6 5 4 3 3 3 2 2 2 1 1 1 3 3
15 13 7 11 12 14 17 15 13 17 17 23 23 19 18 28 22 24 21 20 15 15 14 15 15 15 16 16 16 17 17 17 17 15 12 11 11 7 7 7 6 6 7 6 9 14 14 11 11 11 11 12 12 14 16 20 19 19 17 11 9 10 10 10 10 10 10 9 8 8 6 6 5 5 4 3 3 3 3 1 1 2 2 2 2 3
15 19 16 16 15 13 12 14 16 13 14 13 23 23 20 26 25 25 23 20 17 15 14 14 15 15 16 18 18 16 14 15 17 15 13 15 12 10 10 10 11 10 10 12 12 13 12 14 18 15 13 11 10 15 13 15 21 19 18 10 10 11 12 11 11 10 10 9 9 8 7 6 5 5 4 3 3 3 2 1 1 2 3 2 2 3
17 23 23 18 20 16 21 16 10 12 18 19 20 23 27 27 22 19 20 19 17 16 13 13 13 15 14 12 12 12 14 16 16 14 13 11 9 9 8 9 8 8 8 9 9 12 12 14 16 15 16 12 13 12 15 16 17 22 13 12 10 11 11 12 11 10 10 9 8 8 8 8 6 4 3 2 2 2 2 2 2 3 2 2 2 4
6 12 13 14 15 16 16 8 21 20 20 19 18 21 23 19 17 14 17 18 19 19 17 14 16 15 13 5 11 13 14 15 15 14 12 10 10 11 14 14 12 13 15 14 14 15 15 18 15 18 18 18 12 12 13 17 10 12 13 13 12 11 11 11 12 11 10 9 9 8 7 8 6 5 3 2 2 2 2 2 2 3 2 0 2 4
11 3 12 13 16 14 18 13 14 15 19 17 16 15 15 17 20 18 17 18 20 20 20 21 18 16 11 10 11 14 17 16 14 13 12 11 12 11 12 14 13 10 9 11 13 16 18 17 19 19 18 15 14 12 15 16 13 10 10 11 11 10 11 11 10 11 10 10 8 7 7 6 7 6 4 3 3 3 3 2 3 3 1 1 2 4
7 4 6 3 6 11 13 16 17 19 22 21 15 5 9 14 15 18 19 18 16 17 19 18 16 18 16 17 16 16 16 16 17 16 14 11 11 11 13 14 16 15 13 15 15 22 22 18 17 20 18 15 12 13 13 13 11 11 13 12 11 13 12 10 10 9 10 8 7 7 6 6 6 4 4 4 3 2 2 2 3 3 2 4 4 5
9 14 11 13 15 15 15 15 7 9 12 15 17 18 13 11 13 12 12 12 14 18 18 19 19 17 17 17 18 18 16 16 17 16 13 14 15 14 11 14 16 17 14 12 12 15 13 19 24 19 19 14 14 13 14 13 12 11 10 12 12 10 13 12 10 9 8 6 7 7 7 6 5 5 4 4 3 2 2 4 5 5 3 3 6 9
18 18 13 13 14 16 11 15 8 11 12 11 15 17 13 11 10 12 13 12 13 15 17 16 17 17 17 16 13 15 16 17 19 16 13 12 15 13 14 16 17 18 16 15 15 15 18 18 17 19 21 16 15 14 13 13 13 12 11 12 12 11 11 13 10 7 6 6 5 7 7 6 6 5 4 4 4 2 1 2 3 3 8 9 8 9
Wind_Direction
312 219 221 230 234 220 204 209 230 306 267 77 186 229 255 259 267 271 233 138 160 256 245 254 256 260 264 269 271 270 271 229 243 249 253 256 251 244 238 221 207 214 226 210 197 181 172 172 173 175 168 169 169 175 175 175 179 182 177 175 177 171 169 174 173 178 179 180 172 172 188 175 152 157 137 172 164 192 238 251 266 261 257 264 272 271
219 233 242 238 242 152 214 196 164 127 172 229 249 241 264 230 262 263 331 129 178 212 271 242 262 257 262 267 267 268 253 257 258 256 257 259 252 248 239 222 208 221 216 174 180 169 163 172 173 167 170 171 177 184 177 180 183 183 181 181 176 172 177 185 182 172 177 179 183 168 163 155 147 150 175 170 160 204 238 252 253 256 259 263 271 275
215 233 244 286 87 79 64 134 189 203 192 190 237 255 275 263 270 278 267 123 159 200 266 265 276 271 265 262 263 258 254 254 264 257 262 266 267 257 232 218 208 208 211 197 203 177 178 174 172 176 180 184 185 178 180 182 181 181 180 184 180 174 176 178 173 167 172 164 146 164 135 142 111 132 0 312 277 259 253 252 251 255 258 267 269 273
248 243 262 93 127 119 79 104 168 134 200 203 200 236 240 267 341 292 118 52 177 223 296 309 291 278 262 252 251 261 256 256 260 262 260 252 254 257 258 199 197 215 211 200 192 186 183 177 178 180 184 183 181 176 182 187 186 177 182 185 178 173 176 171 167 169 157 145 128 125 105 98 258 297 221 265 260 248 241 245 240 246 257 267 271 268
229 85 290 100 134 195 166 160 172 195 218 213 223 231 256 249 228 225 305 322 256 233 264 282 267 261 231 242 258 233 147 258 265 266 259 255 246 254 319 206 203 220 204 195 192 190 185 183 187 186 182 176 186 185 187 187 184 171 184 180 174 171 175 169 161 165 154 138 145 141 129 163 215 238 242 239 233 218 218 227 224 233 252 265 267 267
253 171 152 95 121 173 139 189 212 200 236 221 220 228 239 255 268 251 350 338 295 286 150 324 317 279 155 179 246 265 252 215 228 233 248 248 240 221 234 225 216 228 205 192 190 188 187 188 185 180 179 184 192 192 191 184 178 173 182 174 172 169 171 167 164 163 161 168 177 173 185 198 208 216 205 218 224 213 226 239 249 249 246 255 261 262
249 59 205 193 157 182 210 234 194 186 226 227 247 201 232 249 261 276 286 329 268 268 97 340 322 293 135 197 185 225 239 267 231 204 242 257 222 204 216 200 212 212 204 204 194 184 184 187 183 183 187 191 192 194 178 174 179 182 176 168 171 170 168 163 162 160 163 169 183 192 202 219 228 234 233 236 254 252 261 269 268 267 258 256 267 273
135 151 111 148 162 187 216 242 191 184 199 237 95 101 129 191 219 230 231 230 269 52 241 189 229 277 275 229 208 238 244 252 266 270 261 247 240 217 210 192 212 203 198 193 193 188 186 184 185 189 193 189 192 178 170 176 180 182 178 174 174 167 164 155 159 163 169 174 179 185 198 213 227 230 239 223 247 259 268 266 270 278 275 272 269 275
145 140 173 161 193 191 222 223 121 180 190 237 95 197 138 145 190 167 208 253 279 327 283 193 216 266 256 206 217 238 244 246 253 254 257 258 244 224 212 196 212 204 197 190 185 189 187 188 191 191 189 189 177 174 175 180 179 176 175 174 170 171 166 160 161 163 170 178 181 185 195 211 221 230 235 233 234 252 254 265 268 269 277 277 269 262
286 193 198 176 160 217 178 51 195 177 212 87 117 83 79 79 73 195 236 246 262 246 253 191 176 247 277 149 159 288 216 240 242 242 244 247 248 202 219 202 206 200 194 197 197 187 190 191 189 187 177 177 183 179 175 176 171 176 172 175 174 174 168 159 161 163 165 173 174 187 197 204 216 215 223 223 229 233 242 254 260 264 268 270 272 265
87 3 356 214 217 195 104 68 44 350 31 128 160 122 117 115 139 131 224 253 285 245 238 209 197 204 277 157 164 158 193 202 225 241 249 256 262 233 222 198 187 189 190 187 188 188 189 185 178 173 180 181 177 176 178 180 180 179 175 177 177 173 163 161 164 166 167 172 181 190 196 201 211 215 220 224 225 228 233 247 253 259 267 275 277 280
173 118 204 239 63 87 98 96 58 43 118 155 165 192 187 221 153 201 184 181 237 266 167 197 197 192 238 183 169 176 128 203 209 221 235 243 239 218 196 193 189 182 177 173 177 180 171 168 179 179 187 180 178 177 185 188 183 180 180 176 175 170 165 165 164 168 170 174 184 192 194 201 206 208 210 219 227 229 238 250 265 269 275 274 273 269
227 204 167 85 281 141 165 117 100 80 162 223 158 175 238 265 347 243 154 223 205 249 80 62 97 262 233 245 195 181 215 221 235 236 253 250 241 217 195 180 176 166 163 177 180 176 180 184 181 184 183 174 180 186 186 186 182 181 183 179 175 172 167 166 163 170 171 175 184 189 195 200 201 206 211 218 228 229 238 246 253 261 266 269 265 258
258 61 152 187 105 233 172 193 162 218 184 182 188 185 199 247 220 260 249 206 291 231 192 121 141 255 274 276 231 239 233 217 220 230 241 248 244 219 196 165 160 178 183 183 178 181 184 184 183 183 184 181 182 184 185 183 179 180 182 182 179 171 167 164 167 171 172 180 184 189 192 196 197 202 205 215 221 227 235 242 251 253 257 263 262 268
274 249 195 154 227 157 192 212 189 148 159 199 175 182 219 190 199 251 262 267 268 302 119 212 89 236 130 251 203 213 224 220 216 221 231 241 262 342 26 103 159 186 195 189 187 190 189 188 185 185 187 186 187 184 181 181 182 177 181 182 178 165 169 167 169 169 174 179 184 186 190 192 193 195 200 210 219 225 231 240 247 251 253 256 261 264
224 255 58 169 356 150 188 193 97 107 111 160 172 15 222 231 182 253 294 295 312 311 296 160 225 245 226 42 223 49 180 218 215 225 225 226 235 203 237 227 211 200 195 194 198 198 197 188 187 187 191 195 194 188 185 181 177 179 183 179 177 167 166 168 168 172 175 177 180 183 185 187 186 191 197 209 214 222 226 239 246 251 253 254 261 265
61 249 121 111 59 192 141 100 210 187 204 153 142 209 212 8 194 256 294 154 82 265 259 174 257 249 254 243 176 202 192 214 209 231 225 228 233 197 229 234 219 206 199 199 204 199 190 189 194 194 192 191 191 189 191 188 184 182 173 173 173 165 165 170 170 169 173 173 172 179 178 179 186 193 199 204 213 220 231 240 244 247 251 258 259 263
229 258 139 162 186 244 350 326 49 0 96 112 219 201 83 21 352 193 249 268 228 249 270 309 267 287 267 291 148 157 202 213 216 227 217 225 236 216 230 237 226 208 196 197 204 198 190 193 196 197 200 196 195 194 192 188 181 179 173 173 168 163 167 168 166 167 168 167 170 171 175 181 186 189 198 208 216 224 231 235 239 244 249 250 257 264
130 284 204 248 47 99 30 173 96 356 338 304 342 318 174 192 197 179 214 253 249 237 266 271 279 274 258 259 138 183 200 222 231 227 215 238 235 225 237 245 240 201 196 207 208 200 195 197 200 201 200 197 197 192 189 182 169 170 170 174 169 167 164 159 160 160 160 162 163 168 173 178 181 187 194 206 214 223 233 236 241 247 255 263 262 262
244 235 250 218 92 130 157 186 198 176 198 80 178 197 340 309 185 168 206 245 229 264 279 279 287 272 126 210 210 194 198 205 220 215 206 226 226 217 228 239 235 212 222 217 203 201 201 202 202 200 197 194 192 185 181 171 167 176 174 169 166 158 156 157 159 157 158 160 160 162 164 174 178 182 193 204 212 224 231 239 246 253 258 260 268 271
234 124 267 96 300 143 210 188 215 178 173 171 196 197 156 214 353 348 322 223 222 243 241 269 277 275 299 161 148 178 188 205 199 201 211 221 230 228 227 236 230 226 230 223 206 199 199 201 197 199 196 193 187 183 176 175 179 177 172 172 166 162 161 159 159 157 157 156 164 165 171 174 176 185 193 204 217 229 238 243 247 253 260 273 270 276
196 178 234 185 185 221 235 192 222 211 175 170 181 194 182 168 195 195 245 155 245 223 241 225 250 265 262 102 123 130 192 179 185 201 206 203 219 227 228 227 213 205 219 220 213 200 199 196 195 193 188 183 177 181 182 178 173 177 175 174 165 161 161 160 160 162 155 158 164 171 174 175 177 184 194 205 216 228 233 242 247 252 264 264 272 275
194 182 203 230 228 238 257 141 322 334 281 254 190 206 185 203 175 183 230 213 104 241 248 248 282 262 250 121 151 199 195 188 174 186 202 193 207 210 221 226 226 226 211 210 210 200 198 193 192 190 189 191 191 188 181 176 181 179 174 167 167 161 164 161 158 157 156 160 166 172 172 175 181 186 196 207 218 225 230 240 248 251 258 266 273 278
66 156 211 253 280 238 123 45 62 257 169 171 255 247 184 207 200 208 227 244 227 192 232 224 222 265 256 77 261 214 204 179 204 178 190 197 200 212 211 204 208 210 230 221 210 203 195 186 184 184 190 192 191 184 184 182 179 174 172 168 163 164 158 158 155 155 156 160 166 168 171 179 182 188 198 207 216 221 230 239 247 254 256 267 277 277
176 233 212 233 247 271 257 138 182 228 223 219 207 206 206 210 210 243 26 111 252 233 237 205 247 249 259 180 256 223 133 253 227 229 226 217 214 220 213 205 203 213 211 211 214 206 191 190 193 198 197 197 192 188 182 180 178 173 172 165 166 161 157 153 155 155 159 164 164 171 176 180 183 190 197 206 212 222 232 241 244 249 264 268 271 278
197 172 186 207 225 229 235 242 230 173 209 224 318 209 192 208 206 184 237 222 241 243 237 242 258 250 267 256 240 156 148 268 237 147 240 253 269 260 235 222 213 206 217 210 200 187 202 204 202 199 201 195 193 187 183 179 176 173 167 168 162 155 155 156 154 157 158 162 166 171 179 180 184 191 196 201 212 220 225 232 246 253 263 271 275 282
200 185 195 212 223 225 232 247 39 105 126 197 214 190 203 209 212 213 221 227 229 233 222 231 245 266 267 273 273 271 216 248 250 172 212 231 223 221 241 248 240 225 219 216 207 205 201 203 208 206 197 198 189 186 184 180 175 170 165 164 162 157 156 155 155 157 159 163 169 172 178 180 184 185 188 194 201 205 216 229 243 254 261 268 272 272
173 214 211 223 229 235 242 253 257 204 176 204 206 204 205 203 212 215 218 236 215 50 251 238 248 254 260 269 274 270 267 265 268 274 271 249 205 203 207 221 235 232 229 221 211 206 211 212 206 200 201 192 190 184 183 184 177 171 168 165 161 159 155 155 155 155 159 163 172 176 176 178 178 179 183 184 186 200 217 229 237 247 253 259 265 267
214 241 232 237 241 240 241 251 252 254 244 232 220 208 214 210 215 218 228 237 223 230 241 243 249 254 255 257 259 262 264 259 269 269 264 269 272 169 210 228 231 228 225 217 217 217 216 212 205 201 195 193 184 186 184 179 174 166 164 159 159 159 158 154 153 155 159 168 173 175 170 167 170 173 172 177 182 196 204 218 236 243 253 256 261 267
195 244 249 250 264 261 259 256 259 262 264 263 259 260 251 235 226 219 235 233 224 238 244 254 257 260 263 257 255 263 273 275 274 278 282 281 274 264 257 262 264 248 219 212 211 213 213 213 205 196 190 187 189 186 183 180 176 173 168 165 162 160 156 153 155 156 162 169 172 164 163 163 161 165 164 170 183 188 200 217 231 239 247 254 260 269
231 253 252 263 266 254 253 256 259 260 262 265 265 258 247 245 244 234 243 245 244 252 253 253 258 265 258 257 269 283 280 276 278 277 277 279 276 275 276 270 269 272 256 219 213 209 210 207 202 191 190 193 190 187 183 180 175 169 165 161 160 157 156 153 150 156 163 166 162 159 158 162 164 164 169 171 178 186 199 220 225 239 247 252 257 263
209 261 244 252 254 252 247 248 249 254 257 260 262 251 248 246 244 240 240 237 241 250 251 256 257 246 250 258 265 266 267 270 272 273 272 268 269 279 271 268 270 273 276 251 215 215 200 201 199 197 197 195 189 183 180 175 171 166 168 162 160 154 149 148 147 153 160 158 156 159 161 162 160 165 171 171 183 188 197 214 228 237 245 251 258 264
187 234 236 234 241 244 246 244 253 259 272 263 240 239 240 248 253 253 254 256 247 246 258 250 243 251 259 261 267 263 262 264 264 266 268 270 274 277 273 272 273 275 277 273 262 206 201 201 201 199 196 187 183 184 185 172 163 172 166 160 156 138 147 147 148 150 156 156 159 161 162 160 164 169 173 179 178 183 197 212 227 234 238 243 252 258
215 222 241 216 244 246 251 252 251 251 235 229 229 233 237 244 242 244 246 246 248 239 248 258 267 261 260 261 261 256 264 263 263 268 269 272 285 287 277 274 276 278 278 273 263 221 205 201 201 197 188 185 186 183 172 168 168 164 150 138 131 140 144 144 147 152 154 155 161 162 162 165 165 173 173 173 177 188 203 208 221 232 241 241 244 248
222 220 233 217 239 241 245 247 235 228 230 235 243 229 235 237 245 251 253 258 264 258 259 259 256 257 259 262 260 267 264 266 275 275 271 274 278 271 272 274 272 272 273 277 269 217 206 195 186 178 179 181 168 158 152 154 149 127 124 135 139 141 142 146 147 153 156 158 162 162 165 166 170 172 170 172 179 191 201 207 220 232 234 230 237 248
227 225 224 224 227 247 225 203 237 241 244 283 184 226 240 251 254 257 260 251 248 251 255 254 254 260 265 264 269 268 270 281 281 274 271 273 258 245 254 262 267 268 273 277 264 248 199 183 188 186 185 149 138 150 153 154 137 134 139 138 140 142 143 145 149 153 156 160 166 168 169 168 170 170 169 171 180 187 199 203 216 229 238 240 249 260
223 228 219 244 205 232 219 217 230 274 345 176 210 227 218 219 227 226 240 236 239 247 250 251 254 257 259 264 268 273 276 284 276 274 274 233 201 219 240 249 257 270 276 272 238 228 198 188 182 169 140 149 154 145 154 137 133 132 134 143 145 143 144 146 151 158 162 164 166 170 168 170 168 166 168 172 178 182 195 200 218 229 226 243 265 278
214 219 209 226 219 210 233 232 238 221 236 216 217 234 239 238 242 251 239 252 195 247 244 246 251 252 259 262 263 265 277 296 272 270 276 162 202 215 236 252 265 264 263 249 121 146 165 171 151 146 150 144 148 149 137 140 142 141 143 145 146 148 149 152 157 159 160 165 166 167 164 166 163 163 168 170 173 176 193 201 224 220 228 250 288 289
218 220 222 223 232 212 231 231 229 228 236 182 228 234 244 247 229 80 250 247 197 241 246 249 251 252 254 257 261 262 261 255 261 266 277 148 201 204 218 226 215 223 207 191 181 171 164 159 148 140 134 146 151 156 143 144 144 141 144 148 151 149 153 161 159 161 162 162 156 158 153 154 161 162 164 165 163 177 197 203 207 226 230 265 283 283
216 210 212 229 234 230 241 236 241 217 244 193 215 231 242 246 156 156 252 236 226 242 240 246 250 250 250 250 254 255 243 246 248 256 250 172 186 198 191 199 187 188 192 169 171 157 139 128 126 143 156 165 165 148 150 148 149 156 150 153 149 153 158 161 158 148 142 140 144 146 147 153 157 159 157 151 158 187 203 193 209 207 343 314 285 297
215 216 216 225 220 225 224 241 246 244 201 176 213 226 208 129 155 210 230 221 228 237 236 238 245 247 248 251 244 240 233 234 234 247 208 167 143 197 208 217 213 179 172 170 161 137 142 155 159 165 167 156 138 142 145 145 144 152 153 148 153 159 153 138 130 132 135 137 138 140 145 145 156 158 150 151 169 185 188 182 197 198 24 295 306 306
217 199 222 214 221 219 226 231 236 244 217 201 222 218 146 148 203 224 227 230 244 243 239 231 238 243 245 237 234 232 239 239 233 234 219 196 198 187 175 165 155 145 119 144 148 149 146 149 143 131 133 140 144 149 155 158 166 153 142 148 157 143 120 120 127 127 130 138 135 134 138 142 148 156 145 159 175 181 166 157 177 137 80 352 330 315
164 205 195 201 218 234 232 240 232 236 123 190 222 216 180 206 229 226 243 237 238 242 243 244 238 242 240 240 230 234 235 238 236 229 223 207 195 180 177 175 173 169 161 154 164 175 149 151 157 160 148 141 137 142 156 164 162 143 134 141 123 116 120 123 124 128 131 129 129 134 142 145 153 149 142 167 181 163 152 167 162 150 110 34 341 319
178 224 200 213 179 219 217 211 217 220 219 197 197 214 197 217 222 229 235 245 233 236 236 243 241 242 242 241 239 235 235 241 245 242 230 220 205 177 176 177 157 144 160 178 171 166 161 145 141 124 129 140 149 155 159 166 153 150 154 130 120 120 119 124 128 131 128 130 135 138 144 151 151 136 142 168 173 151 142 132 143 119 83 34 354 336
176 220 213 221 195 205 220 218 221 221 223 206 205 222 221 222 225 234 239 242 245 239 237 245 248 244 239 240 243 245 248 237 242 234 220 221 192 181 178 180 172 170 169 169 175 168 168 153 152 146 146 151 143 131 144 132 150 156 142 132 131 137 137 136 135 135 134 138 142 144 148 151 142 133 143 169 169 150 149 159 124 98 65 45 352 327
226 225 232 238 244 231 237 226 235 228 229 228 212 221 228 231 228 232 240 248 245 250 244 244 244 246 248 238 239 237 238 241 239 238 234 226 210 184 166 160 161 152 153 153 157 171 166 139 129 135 135 140 147 149 140 155 149 154 146 138 145 147 143 140 136 134 137 139 141 145 150 137 125 128 145 174 153 132 137 140 118 83 62 31 329 315
306 308 288 268 277 259 254 192 235 235 231 224 221 225 229 234 240 233 235 238 246 247 251 250 251 248 242 205 212 224 235 241 244 245 241 232 215 194 187 185 174 169 169 173 169 156 156 149 147 152 152 151 161 149 150 146 153 128 138 149 151 148 142 137 133 130 138 139 139 146 150 137 138 142 153 164 148 138 146 160 122 95 81 290 295 304
293 282 268 266 268 259 273 275 276 269 257 253 243 239 238 234 237 233 233 232 236 241 244 251 254 257 256 242 215 234 246 249 249 246 239 228 219 201 195 186 172 166 181 161 160 165 150 159 161 161 156 152 156 152 142 137 132 137 134 140 143 139 138 132 137 140 145 144 144 147 146 131 132 142 146 149 153 149 159 160 140 116 154 230 286 292
287 13 263 32 294 287 294 297 295 295 291 280 269 238 227 245 242 239 239 241 243 246 247 249 246 252 253 254 252 249 249 252 251 249 244 233 228 215 205 192 173 169 157 169 174 169 174 170 162 161 157 152 150 145 142 135 134 141 146 142 139 146 139 131 127 124 134 141 139 133 131 127 142 149 141 144 135 146 173 183 151 141 206 240 235 260
290 260 268 277 273 268 260 266 261 276 270 278 277 280 289 305 306 300 293 280 267 268 266 261 259 255 250 249 253 254 254 253 253 250 240 236 232 225 195 187 182 165 176 175 160 178 162 169 153 158 154 151 154 152 145 138 137 138 140 140 147 144 130 131 132 133 142 151 140 132 133 132 137 142 144 134 125 137 173 198 193 203 219 261 287 306
250 255 252 247 249 259 269 268 263 267 281 293 309 312 325 332 322 310 298 293 285 275 274 276 280 281 275 268 255 257 258 260 262 262 254 246 240 221 202 180 171 178 179 164 158 171 174 174 166 157 153 159 157 147 137 135 140 138 140 147 152 146 133 135 136 135 144 149 146 146 136 137 137 144 139 135 137 151 135 63 24 257 240 246 279 307